This is the latest recevied weather packets stored in our database for station/object KF7SOJ. If no packets are shown the sender has not sent any weather packets the latest 10 day(s).
| Time | Temp. | Humidity | Pressure | Rain* | Wind** | Luminosity | Snow |
|---|---|---|---|---|---|---|---|
| 1777735536 | 18.33° C | 26% | 933.4 hPa | 0 mm | - | 523 W/m² | - |
| 1777735234 | 17.78° C | 27% | 933.5 hPa | 0 mm | - | 515 W/m² | - |
| 1777734931 | 17.78° C | 25% | 933.4 hPa | 0 mm | - | 519 W/m² | - |
| 1777734628 | 17.78° C | 26% | 933.5 hPa | 0 mm | - | 499 W/m² | - |
| 1777734326 | 17.22° C | 26% | 933.4 hPa | 0 mm | - | 443 W/m² | - |
| 1777734021 | 17.22° C | 26% | 933.5 hPa | 0 mm | - | 448 W/m² | - |
| 1777733718 | 17.22° C | 26% | 933.6 hPa | 0 mm | - | 471 W/m² | - |
| 1777733415 | 16.67° C | 27% | 933.6 hPa | 0 mm | - | 459 W/m² | - |
| 1777733111 | 16.67° C | 27% | 933.5 hPa | 0 mm | - | 401 W/m² | - |
| 1777732808 | 16.67° C | 27% | 933.4 hPa | 0 mm | - | 420 W/m² | - |
| 1777732504 | 16.67° C | 28% | 933.7 hPa | 0 mm | - | 351 W/m² | - |
| 1777732202 | 16.67° C | 27% | 933.5 hPa | 0 mm | - | 244 W/m² | - |
| 1777731899 | 16.67° C | 28% | 933.6 hPa | 0 mm | - | 371 W/m² | - |
| 1777731595 | 16.67° C | 29% | 933.4 hPa | 0 mm | - | 282 W/m² | - |
| 1777731294 | 16.11° C | 29% | 933.4 hPa | 0 mm | - | 351 W/m² | - |
| 1777730990 | 16.11° C | 28% | 933.7 hPa | 0 mm | - | 329 W/m² | - |
| 1777730689 | 16.11° C | 28% | 933.4 hPa | 0 mm | - | 306 W/m² | - |
| 1777730384 | 15.56° C | 28% | 933.5 hPa | 0 mm | - | 290 W/m² | - |
| 1777730081 | 15.56° C | 29% | 933.5 hPa | 0 mm | - | 269 W/m² | - |
| 1777729777 | 15° C | 30% | 933.5 hPa | 0 mm | - | 247 W/m² | - |
| 1777729474 | 15° C | 29% | 933.5 hPa | 0 mm | - | 220 W/m² | - |
| 1777729171 | 15° C | 30% | 933.3 hPa | 0 mm | - | 190 W/m² | - |
| 1777728868 | 14.44° C | 30% | 933.3 hPa | 0 mm | - | 179 W/m² | - |
| 1777728565 | 14.44° C | 29% | 933.3 hPa | 0 mm | - | 167 W/m² | - |
| 1777728262 | 13.89° C | 30% | 933.3 hPa | 0 mm | - | 154 W/m² | - |
* Rain latest hour (hover to see other rain measurements)
** Current wind speed in m/s (hover to see current wind gust speed)